TimeCST,TemperatureF,Dew PointF,Humidity,Sea Level PressureIn,VisibilityMPH,Wind Direction,Wind SpeedMPH,Gust SpeedMPH,PrecipitationIn,Events,Conditions,WindDirDegrees,DateUTC
12:15 AM,41.2,39.6,94,29.72,0.8,ENE,10.4,-,0.01,Thunderstorm,Unknown,70,2013-01-29 06:15:00
12:35 AM,41.2,39.6,94,29.72,0.2,NE,4.6,-,0.01,Fog-Thunderstorm,Fog,50,2013-01-29 06:35:00
12:55 AM,41.2,39.6,94,29.70,0.2,East,6.9,-,0.01,Rain,Light Rain,80,2013-01-29 06:55:00
1:15 AM,41.9,40.3,94,29.69,0.2,NNE,3.5,-,N/A,Fog,Fog,30,2013-01-29 07:15:00
1:35 AM,44.2,42.6,94,29.69,0.2,Calm,Calm,-,0.01,Fog,Fog,0,2013-01-29 07:35:00
1:55 AM,48.7,47.1,94,29.67,0.5,South,6.9,-,0.01,Fog,Fog,170,2013-01-29 07:55:00
2:15 AM,54.0,52.3,94,29.66,2.0,South,15.0,-,N/A,,Overcast,170,2013-01-29 08:15:00
2:35 AM,54.0,52.3,94,29.65,2.5,South,15.0,20.7,N/A,,Overcast,170,2013-01-29 08:35:00
2:55 AM,51.4,49.8,94,29.67,1.2,West,6.9,-,N/A,,Overcast,260,2013-01-29 08:55:00
3:15 AM,54.0,52.3,94,29.65,4.0,South,12.7,-,N/A,,Overcast,180,2013-01-29 09:15:00
3:35 AM,54.0,52.3,94,29.65,4.0,South,10.4,-,N/A,,Overcast,180,2013-01-29 09:35:00
3:55 AM,54.0,52.3,94,29.64,5.0,South,11.5,-,N/A,,Overcast,180,2013-01-29 09:55:00
4:15 AM,54.0,52.2,94,29.63,5.0,South,11.5,17.3,N/A,,Overcast,180,2013-01-29 10:15:00
4:35 AM,54.1,52.3,94,29.63,5.0,South,10.4,16.1,N/A,,Overcast,190,2013-01-29 10:35:00
4:55 AM,55.2,53.4,94,29.62,5.0,South,13.8,-,N/A,,Overcast,180,2013-01-29 10:55:00
5:15 AM,55.4,53.6,94,29.60,5.0,South,17.3,23.0,N/A,,Mostly Cloudy,170,2013-01-29 11:15:00
5:35 AM,55.4,53.6,94,29.60,5.0,South,17.3,-,N/A,,Scattered Clouds,170,2013-01-29 11:35:00
5:55 AM,56.5,54.5,93,29.60,2.0,South,17.3,21.9,0.18,Rain-Thunderstorm,Heavy Thunderstorms and Rain,170,2013-01-29 11:55:00
6:15 AM,55.4,53.4,93,29.63,5.0,SSW,16.1,-,0.01,Rain-Thunderstorm,Rain,200,2013-01-29 12:15:00
6:35 AM,57.2,55.4,94,29.62,5.0,SSW,20.7,27.6,N/A,Rain-Thunderstorm,Thunderstorms and Rain,200,2013-01-29 12:35:00
6:55 AM,57.2,55.4,94,29.61,7.0,South,16.1,-,N/A,Rain,Rain,180,2013-01-29 12:55:00
7:15 AM,54.3,52.2,92,29.61,7.0,South,15.0,19.6,N/A,,Scattered Clouds,170,2013-01-29 13:15:00
7:35 AM,54.3,52.2,92,29.61,5.0,South,16.1,-,N/A,,Clear,180,2013-01-29 13:35:00
7:55 AM,56.5,54.5,93,29.60,5.0,South,16.1,-,N/A,,Scattered Clouds,180,2013-01-29 13:55:00
8:15 AM,56.5,54.5,93,29.60,5.0,South,15.0,-,N/A,,Mostly Cloudy,170,2013-01-29 14:15:00
8:35 AM,56.8,54.9,93,29.61,5.0,South,16.1,-,N/A,,Scattered Clouds,180,2013-01-29 14:35:00
8:55 AM,59.0,56.8,93,29.63,5.0,SSW,17.3,24.2,N/A,Rain-Thunderstorm,Light Thunderstorms and Rain,200,2013-01-29 14:55:00
9:15 AM,59.0,56.7,92,29.59,7.0,South,15.0,21.9,N/A,Rain,Light Rain,180,2013-01-29 15:15:00
9:35 AM,59.0,56.7,92,29.60,10.0,South,15.0,-,N/A,,Scattered Clouds,170,2013-01-29 15:35:00
9:55 AM,59.0,56.7,92,29.59,7.0,South,9.2,-,N/A,,Scattered Clouds,170,2013-01-29 15:55:00
10:15 AM,59.0,56.7,92,29.60,7.0,South,15.0,-,N/A,,Mostly Cloudy,180,2013-01-29 16:15:00
10:35 AM,59.0,56.7,92,29.60,7.0,South,15.0,-,N/A,,Mostly Cloudy,180,2013-01-29 16:35:00
10:55 AM,59.0,56.7,92,29.59,7.0,South,15.0,23.0,N/A,,Mostly Cloudy,180,2013-01-29 16:55:00
11:15 AM,59.0,56.7,92,29.59,7.0,South,13.8,20.7,N/A,,Overcast,180,2013-01-29 17:15:00
11:35 AM,59.0,57.2,94,29.58,7.0,South,16.1,-,N/A,,Scattered Clouds,190,2013-01-29 17:35:00
11:55 AM,59.0,56.7,92,29.57,7.0,South,13.8,20.7,N/A,,Mostly Cloudy,180,2013-01-29 17:55:00
12:15 PM,59.0,56.7,92,29.55,7.0,SSW,8.1,-,N/A,,Mostly Cloudy,210,2013-01-29 18:15:00
12:35 PM,59.0,56.7,92,29.55,5.0,South,12.7,16.1,N/A,,Light Drizzle,180,2013-01-29 18:35:00
12:55 PM,59.2,56.8,92,29.55,7.0,SSW,11.5,19.6,N/A,,Light Drizzle,200,2013-01-29 18:55:00
1:15 PM,59.0,56.7,92,29.53,5.0,SSW,11.5,19.6,N/A,Rain,Rain,200,2013-01-29 19:15:00
1:35 PM,59.0,55.4,88,29.52,5.0,SW,18.4,28.8,0.02,Rain-Thunderstorm,Light Thunderstorms and Rain,220,2013-01-29 19:35:00
1:55 PM,59.0,55.0,87,29.51,10.0,SW,20.7,27.6,0.02,,Drizzle,230,2013-01-29 19:55:00
2:15 PM,56.5,53.4,89,29.50,7.0,West,19.6,26.5,0.01,Rain,Light Rain,270,2013-01-29 20:15:00
2:35 PM,54.0,51.6,92,29.51,7.0,West,13.8,18.4,0.02,Rain,Light Rain,280,2013-01-29 20:35:00
2:55 PM,53.6,51.8,94,29.53,7.0,West,6.9,-,N/A,Rain,Rain,270,2013-01-29 20:55:00
3:15 PM,54.0,51.8,92,29.53,5.0,West,6.9,-,0.02,Rain,Rain,260,2013-01-29 21:15:00
3:35 PM,54.0,52.0,93,29.53,4.0,Calm,Calm,-,0.06,Rain,Rain,0,2013-01-29 21:35:00
3:55 PM,54.0,52.0,93,29.52,4.0,Calm,Calm,-,0.09,Rain,Rain,0,2013-01-29 21:55:00
4:15 PM,51.4,49.5,93,29.51,4.0,West,3.5,-,0.01,Rain,Rain,270,2013-01-29 22:15:00
4:35 PM,47.8,45.9,93,29.51,4.0,NW,5.8,-,0.02,Rain,Light Rain,320,2013-01-29 22:35:00
4:55 PM,46.4,44.6,93,29.52,4.0,WNW,4.6,-,0.03,Rain,Light Rain,290,2013-01-29 22:55:00
5:15 PM,46.4,44.2,92,29.51,4.0,WNW,4.6,-,0.02,Rain,Light Rain,290,2013-01-29 23:15:00
5:35 PM,45.5,43.7,93,29.52,4.0,WNW,5.8,-,0.05,Rain,Rain,290,2013-01-29 23:35:00
5:55 PM,45.0,43.2,93,29.53,3.0,West,4.6,-,0.07,Rain,Light Rain,280,2013-01-29 23:55:00
6:15 PM,45.0,43.2,93,29.51,2.5,Calm,Calm,-,0.02,Rain,Rain,0,2013-01-30 00:15:00
6:35 PM,45.0,43.2,93,29.51,2.0,Calm,Calm,-,0.04,Rain,Light Rain,0,2013-01-30 00:35:00
6:55 PM,44.1,42.4,94,29.51,1.2,WNW,3.5,-,0.05,Rain,Rain,290,2013-01-30 00:55:00
7:15 PM,43.7,42.1,94,29.51,1.5,WNW,3.5,-,0.01,Rain,Rain,290,2013-01-30 01:15:00
7:35 PM,44.6,42.8,93,29.51,2.0,Calm,Calm,-,N/A,Rain,Rain,0,2013-01-30 01:35:00
7:55 PM,43.7,42.1,94,29.49,1.5,Calm,Calm,-,0.05,Rain,Light Rain,0,2013-01-30 01:55:00
8:15 PM,43.7,42.1,94,29.50,1.5,NW,4.6,-,0.01,Rain,Light Rain,310,2013-01-30 02:15:00
8:35 PM,43.7,42.1,94,29.49,2.0,NW,6.9,-,0.03,Rain,Rain,320,2013-01-30 02:35:00
8:55 PM,43.7,42.1,94,29.50,4.0,North,9.2,-,0.06,Rain,Light Rain,360,2013-01-30 02:55:00
9:15 PM,41.2,39.6,94,29.48,7.0,North,10.4,17.3,0.01,,Drizzle,350,2013-01-30 03:15:00
9:35 PM,41.2,39.6,94,29.50,10.0,NNW,10.4,-,0.01,Rain,Rain,330,2013-01-30 03:35:00
9:55 PM,38.8,37.2,94,29.50,7.0,NNW,8.1,-,0.02,Rain,Rain,330,2013-01-30 03:55:00
10:15 PM,38.7,37.0,94,29.49,7.0,NNW,6.9,-,0.01,Rain,Rain,330,2013-01-30 04:15:00
10:35 PM,38.7,36.9,93,29.48,7.0,North,10.4,17.3,0.02,Rain,Rain,360,2013-01-30 04:35:00
10:55 PM,38.7,36.9,93,29.51,7.0,NNW,9.2,-,0.02,,Light Drizzle,340,2013-01-30 04:55:00
11:15 PM,38.7,36.7,93,29.48,7.0,North,8.1,-,N/A,Rain,Rain,350,2013-01-30 05:15:00
11:35 PM,38.7,36.9,93,29.49,5.0,NNW,8.1,-,0.01,,Drizzle,330,2013-01-30 05:35:00
11:55 PM,36.1,34.2,93,29.45,5.0,NNW,10.4,17.3,0.02,Rain,Light Rain,330,2013-01-30 05:55:00